Regional Weather Roundup
Issued by NWS

Home | Current Version | Previous Version | Graphics & Text | Print | Product List | Glossary On
Versions: 1 2 3 4 5 6 7 8 9 10 11 12 13 14 15 16 17 18 19 20 21 22 23 24 25 26 27 28 29 30 31 32 33 34 35 36 37 38 39 40 41 42 43 44 45 46 47 48 49 50
000
ASUS43 KIND 220700
RWRIN

WEATHER ROUNDUP FOR INDIANA
NATIONAL WEATHER SERVICE INDIANAPOLIS IN
300 AM EDT TUE AUG 22 2017

NOTE: "FAIR" INDICATES FEW OR NO CLOUDS BELOW 12,000 FEET WITH NO
SIGNIFICANT WEATHER AND/OR OBSTRUCTIONS TO VISIBILITY.

* - STATION DOES NOT REPORT WEATHER SUCH AS PRECIPITATION OR FOG.

+ - STATION NOT QUALITY CONTROLLED BY THE NATIONAL WEATHER SERVICE.
    USE DATA WITH CAUTION...ESPECIALLY DEWPOINT AND RELATIVE
    HUMIDITY OBSERVATIONS.

INZ001>003-010>013-019-020-220800-
NORTHWEST INDIANA

CITY           SKY/WX    TMP DP  RH WIND       PRES   REMARKS
MICHIGAN CITY+ RAIN      70  70 100 S13G25    29.89F
MONTICELLO +   DRIZZLE   72  69  89 W12G18    29.98R
RENSSELAER +   HVY RAIN  70  64  83 S9G18     29.96S

$$

LMZ046-743>745-220800-
SOUTHERN LAKE MICHIGAN

STATION/POSITION TIME  TEMP    WIND        PRES    WAVE
                       AIR SEA DIR/SP/G            HT
                 (UTC) (F)     (DEG/KT/KT) (MB)    (FT)
BURNS HARBOR     0640   72     190/ 17/ 22 1011.9F
MICHIGAN CITY    0610   72                   N/A
5NW MICH CITY    0650   73 74  200/ 16/ 21   N/A     3

$$

INZ004-005-014>016-021>024-220800-
NORTH CENTRAL INDIANA

CITY           SKY/WX    TMP DP  RH WIND       PRES   REMARKS
GOSHEN         CLOUDY    74  66  76 S10       29.91F
PERU/GRISSOM   CLOUDY    73  70  90 SW12      29.94F
SOUTH BEND     RAIN      71  71 100 S8        29.93S FOG

$$

INZ006>009-017-018-025>027-220800-
NORTHEAST INDIANA

CITY           SKY/WX    TMP DP  RH WIND       PRES   REMARKS
FORT WAYNE     CLOUDY    72  68  87 SW8       29.95F

$$

INZ028-029-035-036-043>045-051>053-220800-
WEST CENTRAL INDIANA

CITY           SKY/WX    TMP DP  RH WIND       PRES   REMARKS
LAFAYETTE      MOCLDY    72  69  90 NW16G22   29.95R
TERRE HAUTE    CLOUDY    74  69  85 S12       29.95F

$$

INZ030>032-037>040-046>048-054>057-064-065-220800-
CENTRAL INDIANA

CITY           SKY/WX    TMP DP  RH WIND       PRES   REMARKS
GREENWOOD *+   PTCLDY   N/A N/A N/A S7        29.99F
INDIANAPOLIS   MOCLDY    74  69  85 S8        29.96F
-EAGLE CREEK   CLEAR     74  69  85 CALM      29.97F
KOKOMO +       CLOUDY    72  69  90 S9        29.96F
MT COMFORT *+  MOCLDY    72  68  88 S5        29.99F
SHELBYVILLE    PTCLDY    74  69  85 S7        29.98F

$$

INZ033-034-041-042-049-050-058-059-220800-
EAST CENTRAL INDIANA

CITY           SKY/WX    TMP DP  RH WIND       PRES   REMARKS
MUNCIE         CLEAR     75  68  78 S8        29.97F
RICHMOND +     CLOUDY    70  68  94 S8        30.02F FOG

$$

INZ060-061-067>069-081>083-085>088-220800-
SOUTHWEST INDIANA

CITY           SKY/WX    TMP DP  RH WIND       PRES   REMARKS
EVANSVILLE     CLEAR     76  72  87 SW7       30.00F
HUNTINGBURG +  CLEAR     73  71  93 S5        30.01F

$$

INZ062-063-066-070>080-084-089>092-220800-
SOUTH CENTRAL AND SOUTHEAST INDIANA

CITY           SKY/WX    TMP DP  RH WIND       PRES   REMARKS
BLOOMINGTON    PTCLDY    75  68  78 S9        29.99F
MADISON *+     CLOUDY    73  68  83 S6        30.04F
SEYMOUR +      MOCLDY    73  68  83 CALM      30.01

$$





USA.gov is the U.S. government's official web portal to all federal, state and local government web resources and services.